TimeEDT,TemperatureF,Dew PointF,Humidity,Sea Level PressureIn,VisibilityMPH,Wind Direction,Wind SpeedMPH,Gust SpeedMPH,PrecipitationIn,Events,Conditions,WindDirDegrees,DateUTC
12:15 AM,66.2,59.0,78,29.72,10.0,SW,5.8,-,N/A,,Overcast,220,2013-10-18 04:15:00
12:35 AM,66.2,60.8,83,29.71,9.0,SSW,9.2,16.1,N/A,,Overcast,210,2013-10-18 04:35:00
12:55 AM,64.4,60.8,88,29.71,10.0,SW,10.4,16.1,N/A,,Mostly Cloudy,230,2013-10-18 04:55:00
1:15 AM,64.4,60.8,88,29.71,10.0,SW,9.2,16.1,N/A,,Overcast,230,2013-10-18 05:15:00
1:35 AM,64.4,60.8,88,29.72,10.0,WSW,10.4,-,N/A,,Overcast,240,2013-10-18 05:35:00
1:55 AM,64.4,60.8,88,29.73,10.0,West,11.5,17.3,N/A,,Mostly Cloudy,280,2013-10-18 05:55:00
2:15 AM,64.4,53.6,68,29.73,10.0,West,15.0,28.8,N/A,,Overcast,280,2013-10-18 06:15:00
2:35 AM,64.4,51.8,64,29.74,10.0,West,11.5,28.8,N/A,,Overcast,280,2013-10-18 06:35:00
2:55 AM,64.4,51.8,64,29.74,10.0,West,16.1,24.2,N/A,,Overcast,280,2013-10-18 06:55:00
3:15 AM,62.6,48.2,59,29.75,10.0,WNW,16.1,25.3,N/A,,Scattered Clouds,290,2013-10-18 07:15:00
3:35 AM,62.6,48.2,59,29.76,10.0,West,15.0,23.0,N/A,,Clear,280,2013-10-18 07:35:00
3:55 AM,60.8,48.2,63,29.76,10.0,West,13.8,21.9,N/A,,Clear,280,2013-10-18 07:55:00
4:15 AM,60.8,48.2,63,29.77,10.0,West,10.4,-,N/A,,Clear,280,2013-10-18 08:15:00
4:35 AM,60.8,48.2,63,29.78,10.0,West,12.7,21.9,N/A,,Clear,270,2013-10-18 08:35:00
4:55 AM,59.0,48.2,67,29.79,10.0,West,11.5,17.3,N/A,,Clear,270,2013-10-18 08:55:00
5:15 AM,57.2,44.6,63,29.80,10.0,West,18.4,-,N/A,,Clear,280,2013-10-18 09:15:00
5:35 AM,57.2,44.6,63,29.81,10.0,West,12.7,20.7,N/A,,Clear,280,2013-10-18 09:35:00
5:55 AM,57.2,42.8,59,29.81,10.0,WNW,15.0,19.6,N/A,,Clear,290,2013-10-18 09:55:00
6:15 AM,55.4,42.8,63,29.82,10.0,WNW,15.0,20.7,N/A,,Clear,290,2013-10-18 10:15:00
6:35 AM,55.4,42.8,63,29.83,10.0,WNW,15.0,19.6,N/A,,Clear,290,2013-10-18 10:35:00
6:55 AM,55.4,42.8,63,29.84,10.0,West,10.4,-,N/A,,Clear,280,2013-10-18 10:55:00
7:15 AM,55.4,42.8,63,29.84,10.0,West,11.5,-,N/A,,Clear,270,2013-10-18 11:15:00
7:35 AM,55.4,42.8,63,29.85,10.0,West,9.2,-,N/A,,Clear,280,2013-10-18 11:35:00
7:55 AM,55.4,42.8,63,29.86,10.0,West,11.5,-,N/A,,Clear,270,2013-10-18 11:55:00
8:15 AM,55.4,42.8,63,29.88,10.0,West,12.7,-,N/A,,Clear,270,2013-10-18 12:15:00
8:35 AM,57.2,42.8,59,29.89,10.0,WNW,12.7,-,N/A,,Clear,290,2013-10-18 12:35:00
8:55 AM,57.2,42.8,59,29.90,10.0,West,11.5,-,N/A,,Clear,280,2013-10-18 12:55:00
9:15 AM,57.2,42.8,59,29.90,10.0,WNW,15.0,21.9,N/A,,Clear,300,2013-10-18 13:15:00
9:35 AM,59.0,42.8,55,29.90,10.0,WNW,17.3,23.0,N/A,,Clear,290,2013-10-18 13:35:00
9:55 AM,60.8,42.8,52,29.90,10.0,West,15.0,20.7,N/A,,Clear,280,2013-10-18 13:55:00
10:15 AM,60.8,42.8,52,29.91,10.0,WNW,18.4,24.2,N/A,,Clear,300,2013-10-18 14:15:00
10:35 AM,60.8,42.8,52,29.91,10.0,WNW,15.0,26.5,N/A,,Clear,300,2013-10-18 14:35:00
10:55 AM,62.6,42.8,48,29.92,10.0,WNW,15.0,23.0,N/A,,Clear,290,2013-10-18 14:55:00
11:15 AM,62.6,42.8,48,29.91,10.0,WNW,16.1,21.9,N/A,,Clear,300,2013-10-18 15:15:00
11:35 AM,62.6,42.8,48,29.91,10.0,WNW,18.4,25.3,N/A,,Clear,290,2013-10-18 15:35:00
11:55 AM,62.6,42.8,48,29.91,10.0,NW,18.4,25.3,N/A,,Clear,310,2013-10-18 15:55:00
12:15 PM,64.4,42.8,45,29.91,10.0,WNW,15.0,20.7,N/A,,Clear,300,2013-10-18 16:15:00
12:35 PM,64.4,42.8,45,29.91,10.0,West,15.0,21.9,N/A,,Clear,280,2013-10-18 16:35:00
12:55 PM,64.4,42.8,45,29.90,10.0,WNW,11.5,20.7,N/A,,Clear,290,2013-10-18 16:55:00
1:15 PM,66.2,42.8,43,29.90,10.0,WNW,19.6,25.3,N/A,,Clear,290,2013-10-18 17:15:00
1:35 PM,66.2,42.8,43,29.89,10.0,NW,13.8,-,N/A,,Clear,310,2013-10-18 17:35:00
1:55 PM,66.2,42.8,43,29.89,10.0,WNW,15.0,25.3,N/A,,Partly Cloudy,290,2013-10-18 17:55:00
2:15 PM,66.2,44.6,46,29.89,10.0,WNW,16.1,24.2,N/A,,Clear,300,2013-10-18 18:15:00
2:35 PM,66.2,42.8,43,29.89,10.0,WNW,15.0,23.0,N/A,,Clear,290,2013-10-18 18:35:00
2:55 PM,66.2,42.8,43,29.90,10.0,West,12.7,21.9,N/A,,Clear,270,2013-10-18 18:55:00
3:15 PM,66.2,42.8,43,29.89,10.0,West,15.0,20.7,N/A,,Clear,270,2013-10-18 19:15:00
3:35 PM,66.2,42.8,43,29.89,10.0,NW,15.0,23.0,N/A,,Clear,320,2013-10-18 19:35:00
3:55 PM,66.2,44.6,46,29.88,10.0,West,10.4,-,N/A,,Clear,280,2013-10-18 19:55:00
4:15 PM,66.2,42.8,43,29.89,10.0,West,15.0,19.6,N/A,,Clear,280,2013-10-18 20:15:00
4:35 PM,66.2,42.8,43,29.89,10.0,West,10.4,-,N/A,,Clear,260,2013-10-18 20:35:00
4:55 PM,66.2,42.8,43,29.90,10.0,WNW,8.1,-,N/A,,Clear,290,2013-10-18 20:55:00
5:15 PM,64.4,42.8,45,29.90,10.0,West,13.8,-,N/A,,Clear,270,2013-10-18 21:15:00
5:35 PM,64.4,42.8,45,29.91,10.0,West,9.2,-,N/A,,Clear,270,2013-10-18 21:35:00
5:55 PM,62.6,42.8,48,29.92,10.0,West,6.9,-,N/A,,Clear,270,2013-10-18 21:55:00
6:15 PM,62.6,41.0,45,29.92,10.0,West,5.8,-,N/A,,Clear,260,2013-10-18 22:15:00
6:35 PM,60.8,42.8,52,29.93,10.0,West,5.8,-,N/A,,Clear,260,2013-10-18 22:35:00
6:55 PM,59.0,42.8,55,29.94,10.0,West,8.1,-,N/A,,Clear,270,2013-10-18 22:55:00
7:15 PM,59.0,41.0,51,29.95,10.0,West,8.1,-,N/A,,Clear,270,2013-10-18 23:15:00
7:35 PM,57.2,41.0,55,29.96,10.0,West,6.9,-,N/A,,Clear,270,2013-10-18 23:35:00
7:55 PM,57.2,41.0,55,29.96,10.0,West,5.8,-,N/A,,Clear,270,2013-10-18 23:55:00
8:15 PM,55.4,41.0,58,29.97,10.0,West,4.6,-,N/A,,Clear,280,2013-10-19 00:15:00
8:35 PM,55.4,39.2,54,29.98,10.0,West,5.8,-,N/A,,Clear,260,2013-10-19 00:35:00
8:55 PM,55.4,39.2,54,29.98,10.0,West,8.1,-,N/A,,Clear,270,2013-10-19 00:55:00
9:15 PM,55.4,39.2,54,29.98,10.0,West,8.1,-,N/A,,Clear,270,2013-10-19 01:15:00
9:35 PM,55.4,39.2,54,29.99,10.0,West,8.1,-,N/A,,Clear,260,2013-10-19 01:35:00
9:55 PM,53.6,39.2,58,29.99,10.0,West,5.8,-,N/A,,Clear,270,2013-10-19 01:55:00
10:15 PM,53.6,39.2,58,29.99,10.0,West,5.8,-,N/A,,Clear,260,2013-10-19 02:15:00
10:35 PM,51.8,39.2,62,30.00,10.0,West,5.8,-,N/A,,Clear,260,2013-10-19 02:35:00
10:55 PM,51.8,39.2,62,30.00,10.0,West,5.8,-,N/A,,Clear,260,2013-10-19 02:55:00
11:15 PM,51.8,39.2,62,30.00,10.0,WSW,5.8,-,N/A,,Clear,250,2013-10-19 03:15:00
11:35 PM,51.8,39.2,62,30.00,10.0,West,5.8,-,N/A,,Clear,270,2013-10-19 03:35:00
11:55 PM,50.0,39.2,66,30.00,10.0,WNW,4.6,-,N/A,,Clear,300,2013-10-19 03:55:00